Weather History for Salt Lake City, UT

Change the Weather History Date:

Wednesday, September 26, 2012

  Actual Average Record
Temperature  
Mean Temperature 64 °F 61 °F  
Max Temperature 74 °F 74 °F 89 °F (1956)
Min Temperature 53 °F 49 °F 31 °F (1970)
Degree Days  
Heating Degree Days 1 5  
Month to date heating degree days 7 61  
Since 1 July heating degree days 7 66  
Cooling Degree Days 0 1  
Month to date cooling degree days 152 112  
Year to date cooling degree days 1595 1148  
Growing Degree Days 13 (Base 50)    
Moisture  
Dew Point 49 °F    
Average Humidity 69    
Maximum Humidity 93    
Minimum Humidity 44    
Precipitation  
Precipitation T in 0.04 in 2.27 in (1982)
Month to date precipitation 0.55 1.02  
Year to date precipitation 8.09 11.53  
Snow  
Snow 0.00 in 0.00 in T in (1934)
Month to date snowfall 0.0 0.0  
Since 1 July snowfall 0.0 0.0  
Snow Depth 0.00 in    
Sea Level Pressure  
Sea Level Pressure 29.99 in    
Wind  
Wind Speed 6 mph (SE)    
Max Wind Speed 14 mph    
Max Gust Speed 18 mph    
Visibility 10 miles    
Events Rain    
T = Trace of Precipitation, MM = Missing Value Source: NWS Daily Summary

Daily Weather History Graph

Daily Weather History Graph

Search for Another Location

Airport:

Trip Planner

Search our weather history database for the weather conditions in past years. The results will help you decide how hot, cold, wet, or windy it might be!

Date:

Astronomy

Sep. 26, 2012 Rise Set
Actual Time 7:19 AM MDT 7:17 PM MDT
Civil Twilight 6:52 AM MDT 7:44 PM MDT
Nautical Twilight 6:20 AM MDT 8:16 PM MDT
Astronomical Twilight 5:48 AM MDT 8:48 PM MDT
Moon 5:19 PM MDT (9/26) 3:48 AM MDT (9/26)
Length of Visible Light 12h 51m
Length of Day
11h 57m
Waxing Gibbous, 88% of the Moon is Illuminated
Sep 26
Waxing Gibbous
Sep 29
Full
Oct 8
Last Quarter
Oct 15
New
Oct 21
First Quarter

Hourly Weather History & Observations

Time (MDT) Temp. Dew Point Humidity Pressure Visibility Wind Dir Wind Speed Gust Speed Precip Events Conditions
12:53 AM 59.0 °F 51.1 °F 75% 29.98 in 10.0 mi South 6.9 mph - N/A   Mostly Cloudy
1:53 AM 57.2 °F 50.0 °F 77% 30.07 in 10.0 mi SE 9.2 mph - N/A Rain Light Rain
2:53 AM 55.9 °F 52.0 °F 87% 29.97 in 10.0 mi SSE 4.6 mph - 0.00 in   Mostly Cloudy
3:53 AM 55.0 °F 51.1 °F 86% 29.97 in 10.0 mi ESE 3.5 mph - N/A   Mostly Cloudy
4:53 AM 55.0 °F 51.1 °F 86% 29.96 in 10.0 mi South 3.5 mph - N/A   Scattered Clouds
5:53 AM 53.6 °F 50.0 °F 88% 30.06 in 10.0 mi Calm Calm - N/A   Scattered Clouds
6:53 AM 54.0 °F 50.0 °F 86% 29.99 in 10.0 mi SE 5.8 mph - N/A   Mostly Cloudy
7:53 AM 55.9 °F 51.1 °F 84% 30.00 in 10.0 mi SE 8.1 mph - N/A   Mostly Cloudy
8:53 AM 57.0 °F 51.1 °F 81% 30.00 in 10.0 mi SSE 3.5 mph - N/A   Mostly Cloudy
9:53 AM 59.0 °F 51.1 °F 75% 30.01 in 10.0 mi SE 9.2 mph - N/A   Mostly Cloudy
10:53 AM 63.0 °F 51.1 °F 65% 30.00 in 10.0 mi SSE 6.9 mph - N/A   Mostly Cloudy
11:53 AM 66.0 °F 48.9 °F 54% 29.99 in 10.0 mi East 5.8 mph - N/A   Scattered Clouds
12:53 PM 68.0 °F 48.9 °F 50% 29.98 in 10.0 mi Variable 3.5 mph - N/A   Scattered Clouds
1:53 PM 71.1 °F 48.9 °F 45% 29.95 in 10.0 mi North 11.5 mph - N/A   Scattered Clouds
2:53 PM 72.0 °F 48.9 °F 44% 29.96 in 10.0 mi NNW 9.2 mph - N/A   Scattered Clouds
3:53 PM 72.0 °F 48.0 °F 43% 29.95 in 10.0 mi NNW 8.1 mph - N/A   Mostly Cloudy
4:53 PM 73.9 °F 48.9 °F 41% 29.94 in 10.0 mi NNW 8.1 mph - N/A   Mostly Cloudy
5:53 PM 73.9 °F 44.1 °F 34% 29.94 in 10.0 mi North 9.2 mph - N/A   Mostly Cloudy
6:53 PM 71.1 °F 46.9 °F 42% 29.96 in 10.0 mi NE 4.6 mph - N/A   Mostly Cloudy
7:53 PM 68.0 °F 46.0 °F 45% 29.96 in 10.0 mi ESE 3.5 mph - N/A   Mostly Cloudy
8:53 PM 66.0 °F 44.1 °F 45% 29.98 in 10.0 mi Calm Calm - N/A   Mostly Cloudy
9:53 PM 64.4 °F 46.4 °F 52% 30.09 in 10.0 mi South 3.5 mph - N/A   Mostly Cloudy
10:53 PM 62.1 °F 48.0 °F 60% 30.00 in 10.0 mi SSE 5.8 mph - N/A   Mostly Cloudy
11:53 PM 62.1 °F 46.9 °F 58% 30.00 in 10.0 mi SE 6.9 mph - N/A   Scattered Clouds